Location: Binningen
(47.7924°N, 8.7261°E)
Time: 08:29:54
(UTC+00:00)

NOSS 3-4 (A) - Pass Details

Date: 17 May 2021
Orbit: 872 x 1340 km, 63.4° (Epoch: 06 May)

Event Time Altitude Azimuth Distance (km) Brightness Sun altitude
Rises 20:23:19 0° 317° (NW) 3,832 8.8 -11.8°
Reaches altitude 10° 20:25:54 10° 312° (NW) 2,940 7.5 -12.0°
Maximum altitude 20:32:40 52° 239° (WSW) 1,440 4.4 -12.8°
Enters shadow 20:39:25 13° 168° (SSE) 2,994 5.5 -13.5°
